Weather History for Marshfield, WI

Change the Weather History Date:

Tuesday, March 11, 2014

  Actual Average Record
Temperature  
Mean Temperature 38 °F -  
Max Temperature 41 °F 37 °F 64 °F (2012)
Min Temperature 33 °F 18 °F -21 °F (1948)
Degree Days  
Heating Degree Days 28    
Moisture  
Dew Point 27 °F    
Average Humidity 65    
Maximum Humidity 76    
Minimum Humidity 53    
Precipitation  
Precipitation 0.00 in - - ()
Sea Level Pressure  
Sea Level Pressure 29.77 in    
Wind  
Wind Speed 8 mph (NW)    
Max Wind Speed 13 mph    
Max Gust Speed 21 mph    
Visibility 10 miles    
Events      
Averages and records for this station are not official NWS values.
T = Trace of Precipitation, MM = Missing Value Source: NWS Daily Summary

Daily Weather History Graph

Daily Weather History Graph

Search for Another Location

Airport:

Trip Planner

Search our weather history database for the weather conditions in past years. The results will help you decide how hot, cold, wet, or windy it might be!

Date:

Astronomy

Mar. 11, 2014 Rise Set
Actual Time 7:20 AM CDT 7:01 PM CDT
Civil Twilight 6:51 AM CDT 7:30 PM CDT
Nautical Twilight 6:17 AM CDT 8:04 PM CDT
Astronomical Twilight 5:43 AM CDT 8:39 PM CDT
Moon 2:29 PM CDT (3/11) 4:22 AM CDT (3/11)
Length of Visible Light 12h 39m
Length of Day
11h 41m
Waxing Gibbous, 78% of the Moon is Illuminated
Mar 11
Waxing Gibbous
Mar 16
Full
Mar 23
Last Quarter
Mar 30
New
Apr 7
First Quarter

Hourly Weather History & Observations

Time (CDT) Temp. Windchill Dew Point Humidity Pressure Visibility Wind Dir Wind Speed Gust Speed Precip Events Conditions
12:54 AM 41.0 °F 36.4 °F 30.9 °F 67% 29.66 in 10.0 mi WNW 6.9 mph - N/A   Mostly Cloudy
1:54 AM 39.9 °F 35.1 °F 30.0 °F 68% 29.67 in 10.0 mi WNW 6.9 mph - N/A   Overcast
2:54 AM 39.9 °F 35.1 °F 30.0 °F 68% 29.68 in 10.0 mi WNW 6.9 mph - N/A   Overcast
3:54 AM 39.9 °F 34.5 °F 30.0 °F 68% 29.66 in 10.0 mi WNW 8.1 mph - N/A   Overcast
4:54 AM 39.0 °F 33.4 °F 30.0 °F 70% 29.69 in 10.0 mi WNW 8.1 mph - N/A   Overcast
5:54 AM 37.9 °F 32.1 °F 30.0 °F 73% 29.70 in 10.0 mi NW 8.1 mph - N/A   Overcast
6:54 AM 37.0 °F 32.4 °F 30.0 °F 76% 29.70 in 10.0 mi NW 5.8 mph - N/A   Overcast
7:54 AM 37.0 °F 31.6 °F 30.0 °F 76% 29.73 in 10.0 mi NNW 6.9 mph - N/A   Overcast
8:54 AM 37.0 °F 31.0 °F 30.0 °F 76% 29.74 in 10.0 mi NNW 8.1 mph - N/A   Overcast
9:54 AM 39.9 °F 33.9 °F 28.0 °F 63% 29.76 in 10.0 mi North 9.2 mph - N/A   Overcast
10:54 AM 39.9 °F 35.1 °F 28.0 °F 63% 29.78 in 10.0 mi North 6.9 mph - N/A   Overcast
11:54 AM 37.9 °F 32.7 °F 28.9 °F 70% 29.81 in 10.0 mi NNW 6.9 mph - N/A   Overcast
12:54 PM 39.0 °F 34.8 °F 28.9 °F 67% 29.82 in 10.0 mi WNW 5.8 mph - N/A   Overcast
1:54 PM 39.9 °F 35.1 °F 28.0 °F 63% 29.80 in 10.0 mi WNW 6.9 mph - N/A   Overcast
2:54 PM 39.9 °F 33.9 °F 28.0 °F 63% 29.79 in 10.0 mi NW 9.2 mph - N/A   Mostly Cloudy
3:54 PM 39.0 °F 32.8 °F 27.0 °F 62% 29.79 in 10.0 mi NW 9.2 mph - N/A   Clear
4:54 PM 39.0 °F 31.8 °F 26.1 °F 60% 29.80 in 10.0 mi NW 11.5 mph - N/A   Partly Cloudy
5:54 PM 37.9 °F 32.1 °F 27.0 °F 65% 29.81 in 10.0 mi NW 8.1 mph - N/A   Clear
6:54 PM 37.9 °F 32.1 °F 26.1 °F 62% 29.83 in 10.0 mi NW 8.1 mph - N/A   Clear
7:54 PM 39.0 °F 32.3 °F 24.1 °F 55% 29.86 in 10.0 mi North 10.4 mph - N/A   Clear
8:54 PM 37.9 °F 30.0 °F 21.9 °F 53% 29.88 in 10.0 mi North 12.7 mph 20.7 mph N/A   Clear
9:54 PM 36.0 °F 29.0 °F 23.0 °F 59% 29.88 in 10.0 mi NNE 9.2 mph - N/A   Clear
10:54 PM 34.0 °F 26.6 °F 21.0 °F 59% 29.88 in 10.0 mi NNE 9.2 mph - N/A   Clear
11:54 PM 33.1 °F 26.1 °F 21.0 °F 61% 29.88 in 10.0 mi NNE 8.1 mph - N/A   Mostly Cloudy